User: anonymous   Login
Location: Unspecified
(0.0000°N, 0.0000°E)
Time: 00:05:05
(UTC+00:00)
Language:

UNK - Orbit

View from above orbital plane
View from above orbital plane
View from above satellite
View from above satellite

Ground track
Ground track

The orbit data is extracted from the following two-line orbital elements,

1 28479U 04046A   18112.86472063  .00000128  00000-0  35743-4 0  9990
2 28479  98.1974 132.3047 0009155 237.3697 122.6620 14.60805720714731
Epoch (UTC): 22 April 2018 20:45:11
Eccentricity: 0.0009155
inclination: 98.1974°
perigee height: 684 km
apogee height: 697 km
right ascension of ascending node: 132.3047°
argument of perigee: 237.3697°
revolutions per day: 14.60805720
mean anomaly at epoch: 122.6620°
orbit number at epoch: 71473

The dashed part of the orbit path shows where the satellite is in the earth's shadow,  

DLR